DIRECTV 11

Last updated on Sun Apr 12 2026 00:02:51 GMT+0000 (Coordinated Universal Time)

1 32729U 08013A 26101.07325520 -.00000124 00000+0 00000+0 0 9995 2 32729 0.0129 79.0601 0000342 310.2466 97.1821 1.00272503 44928
UTC large
Height (km)
Speed (km/s)
/
Latitude / Longitude
Inclination (degrees)
Orbital Period (minutes)
Azimuth
Elevation
Range (km)
Doppler Factor

Next 0 passes for location: London (51.5072 / 0.1276)

Sorry there are no passes over London.
DIRECTV 11